This demonstration page uses our WeatherBlox Daily Observations layout. Learn more.

41.55636, -103.73856

Hourly Observations for August 5, 2018

Temp ( °F °C ) Dew Point ( °F °C ) Humidity (%) Winds ( mph kmh ) Pressure ( in mb ) Visibility ( mi km ) Precip ( " mm )
12:58 am 00:58 Mostly Cloudy 68 19.9 50 10 53 53 S 9 15 29.85 1011 10 16.09344 0 0
1:58 am 01:58 Mostly Clear 63 17.3 52 11.3 68 68 SW 7 11 29.85 1011 10 16.09344 0 0
2:58 am 02:58 Partly Cloudy 62 16.4 52 11.1 71 71 SW 6 9 29.83 1010 10 16.09344 0 0
3:58 am 03:58 Mostly Clear 59 14.9 52 10.9 77 77 SW 3 6 29.83 1010 10 16.09344 0 0
4:58 am 04:58 Mostly Cloudy 61 16 52 11.1 73 73 WSW 10 17 29.85 1011 10 16.09344 0 0
5:58 am 05:58 Mostly Cloudy 61 16.3 52 11 71 71 NNW 16 26 29.88 1012 10 16.09344 0 0
6:58 am 06:58 Mostly Sunny 63 17.1 51 10.4 65 65 NNW 10 17 29.94 1014 10 16.09344 0 0
7:58 am 07:58 Sunny 65 18.1 53 11.6 66 66 ENE 3 6 29.94 1014 10 16.09344 0 0
8:58 am 08:58 Mostly Cloudy 65 18.3 54 12.4 69 69 WSW 14 22 30 1016 10 16.09344 0 0
9:58 am 09:58 Mostly Sunny 69 20.6 52 11 54 54 W 14 22 29.97 1015 10 16.09344 0 0
10:58 am 10:58 Sunny 74 23.5 51 10.7 45 45 NW 8 13 29.97 1015 10 16.09344 0 0
11:58 am 11:58 Sunny 77 24.8 52 11.1 42 42 NE 7 11 29.91 1013 10 16.09344 0 0
12:58 pm 12:58 Sunny 78 25.4 52 11.2 41 41 E 6 9 29.91 1013 10 16.09344 0 0
1:58 pm 13:58 Mostly Cloudy 76 24.6 54 12 45 45 ENE 9 15 29.91 1013 10 16.09344 0 0
2:58 pm 14:58 Cloudy with Showers 64 17.6 59 15 85 85 ENE 10 17 30 1016 10 16.09344 0.23 5.842
3:58 pm 15:58 Sunny 71 21.6 60 15.5 68 68 ESE 7 11 29.97 1015 10 16.09344 0.01 0.254
4:58 pm 16:58 Mostly Sunny 72 22.2 60 15.7 67 67 ENE 17 28 29.94 1014 10 16.09344 0 0
5:58 pm 17:58 Mostly Sunny 69 20.7 58 14.7 69 69 E 15 24 29.94 1014 10 16.09344 0 0
6:58 pm 18:58 Cloudy with Heavy Showers 60 15.6 56 13.3 86 86 SE 3 6 30.03 1017 10 16.09344 0.27 6.858
7:58 pm 19:58 Sunny 59 15.2 53 11.8 80 80 S 3 6 30.03 1017 10 16.09344 0.01 0.254
8:58 pm 20:58 Mostly Cloudy with Nearby Thunderstorms 59 15.2 56 13.6 90 90 N 10 17 30.06 1018 10 16.09344 0 0
9:58 pm 21:58 Partly Cloudy 61 15.9 54 12.3 79 79 SE 3 6 30.06 1018 10 16.09344 0 0
10:58 pm 22:58 Cloudy with Nearby Thunderstorms 58 14.7 56 13.4 92 92 N 6 9 30.06 1018 10 16.09344 0 0
11:58 pm 23:58 Mostly Cloudy 59 14.9 56 13.6 92 92 NNW 7 11 30.03 1017 10 16.09344 0 0

Powered by AerisWeather